Flag for Ukraine Weather past 2 weeks in Odesa, Ukraine

Now
68 °F

Clear.


Feels Like: 68 °F
Forecast: 63 / 79 °F
Wind: 6 mph from North

Location: Odesa Airport

Current Time: Jul 2, 2015 at 3:12:37 AM

Latest Report: Jul 2, 2015 at 3:00 AM


Visibility: 10 mi

Pressure: 30.09 "Hg

Humidity: 69%

Dew point: 57 °F

Location of OdesaLocation

Historic Weather in Odesa — Graph

°F

Odesa temperature yesterday

Maximum temperature yesterday: 82 °F (at 1:00 PM)
Minimum temperature yesterday: 55 °F (at 5:00 AM)
Average temperature yesterday: 71 °F

Past Weeks' High & Low Weather Summary

 TemperatureHumidityPressure
High88 °F (Jun 25, 2:00 PM)100% (Jun 23, 5:30 AM)30.12 "Hg (Jun 23, 5:30 AM)
Low54 °F (Jun 20, 2:30 AM)26% (Jun 29, 4:30 PM)29.68 "Hg (Jun 19, 6:30 PM)
Average69 °F60%29.84 "Hg
* Reported Jun 17 2:00 AM — Jul 2 2:00 AM, Odesa, Weather by CustomWeather, © 2015

Note: Actual official high and low records may vary slightly from our data, if they occured in-between our weather recording intervals... More about our weather records

Advertising

Odesa weather history for previous 24 hours

 ConditionsComfort  
Time TempWeatherWind HumidityBarometerVisibility
2:00 AM
Thu, Jul 2
66 °FClear.3 mph68%30.09 "Hg10 mi
1:30 AM66 °FClear.3 mph68%30.09 "Hg10 mi
1:00 AM66 °FClear.3 mph68%30.09 "Hg10 mi
12:00 AM66 °FClear.3 mph68%30.09 "Hg10 mi
11:30 PM
Wed, Jul 1
66 °FClear.3 mph68%30.09 "Hg10 mi
11:00 PM66 °FClear.6 mph68%30.09 "Hg10 mi
10:30 PM66 °FClear.6 mph68%30.09 "Hg10 mi
10:00 PM68 °FClear.3 mph69%30.09 "Hg10 mi
9:30 PM70 °FSunny.3 mph64%30.09 "Hg10 mi
9:00 PM70 °FSunny.6 mph60%30.09 "Hg10 mi
8:30 PM73 °FSunny.8 mph50%30.09 "Hg10 mi
8:00 PM75 °FSunny.8 mph41%30.09 "Hg10 mi
7:30 PM75 °FSunny.10 mph44%30.09 "Hg10 mi
7:00 PM77 °FSunny.10 mph42%30.09 "Hg10 mi
6:30 PM79 °FPassing clouds.13 mph39%30.09 "HgN/A
6:00 PM79 °FPassing clouds.10 mph39%30.09 "HgN/A
5:30 PM79 °FSunny.13 mph39%30.09 "Hg10 mi
5:00 PM81 °FPassing clouds.13 mph39%30.09 "HgN/A
4:30 PM81 °FPartly sunny.13 mph37%30.09 "HgN/A
4:00 PM81 °FPassing clouds.13 mph37%30.09 "HgN/A
3:30 PM81 °FPassing clouds.13 mph37%30.09 "HgN/A
3:00 PM79 °FPartly sunny.13 mph39%30.09 "HgN/A
2:30 PM77 °FPartly sunny.8 mph39%30.09 "HgN/A
2:00 PM81 °FPartly sunny.8 mph37%30.12 "HgN/A
1:30 PM81 °FPartly sunny.6 mph45%30.12 "HgN/A
1:00 PM82 °FPartly sunny.No wind32%30.12 "HgN/A
12:30 PM81 °FSunny.3 mph30%30.12 "Hg10 mi
12:00 PM79 °FSunny.6 mph32%30.12 "Hg10 mi
11:30 AM79 °FSunny.3 mph34%30.12 "Hg10 mi
11:00 AM79 °FPassing clouds.3 mph37%30.12 "HgN/A
10:30 AM75 °FPassing clouds.6 mph44%30.12 "HgN/A
10:00 AM75 °FSunny.6 mph44%30.12 "Hg10 mi
9:30 AM77 °FSunny.1 mph42%30.12 "Hg10 mi
9:00 AM75 °FPassing clouds.3 mph47%30.09 "HgN/A
8:30 AM72 °FSunny.3 mph57%30.09 "Hg10 mi
8:00 AM70 °FSunny.No wind60%30.09 "Hg10 mi
7:00 AM66 °FSunny.No wind73%30.09 "Hg10 mi
6:30 AM61 °FSunny.No wind83%30.09 "Hg10 mi
6:00 AM57 °FClear.No wind82%30.09 "Hg10 mi
5:30 AM55 °FClear.No wind88%30.07 "Hg10 mi
5:00 AM55 °FClear.No wind88%30.07 "Hg10 mi
4:30 AM57 °FClear.No wind77%30.07 "Hg10 mi
4:00 AM59 °FClear.No wind77%30.07 "Hg10 mi
3:30 AM57 °FClear.No wind77%30.07 "Hg10 mi
3:00 AM59 °FClear.No wind77%30.07 "Hg10 mi
Weather by CustomWeather, © 2015

See weather overviewHow to use our weather pages